Regional Weather Roundup
Issued by NWS

Home | Current Version | Previous Version | Graphics & Text | Print | Product List | Glossary On
Versions: 1 2 3 4 5 6 7 8 9 10 11 12 13 14 15 16 17 18 19 20 21 22 23 24 25 26 27 28 29 30 31 32 33 34 35 36 37 38 39 40 41 42 43 44 45 46 47 48 49 50
000
ASUS45 KBOI 112010
RWRID

IDAHO REGIONAL WEATHER ROUNDUP
NATIONAL WEATHER SERVICE BOISE ID
100 PM MST THU FEB 11 2016

NOTE: "FAIR" INDICATES FEW OR NO CLOUDS BELOW 12000 FEET
WITH NO SIGNIFICANT WEATHER AND/OR OBSTRUCTIONS TO VISIBILITY

IDZ012-014-112100-
SOUTHWEST IDAHO


CITY           SKY/WX    TMP DP  RH WIND       PRES   REMARKS
BOISE          MOSUNNY   42  32  67 CALM      30.38F
CALDWELL       MOSUNNY   41  33  73 CALM      30.40F
$$

IDZ016-017-112100-
SOUTHCENTRAL IDAHO


CITY           SKY/WX    TMP DP  RH WIND       PRES   REMARKS
BURLEY         SUNNY     42  30  62 NE13      30.35F
JEROME         SUNNY     34  27  75 NE16      30.36F WCI  24
TWIN FALLS     SUNNY     39  32  76 E8        30.36F WCI  33
$$

IDZ019>023-112100-
SOUTHEAST IDAHO


CITY           SKY/WX    TMP DP  RH WIND       PRES   REMARKS
IDAHO FALLS    CLOUDY    27  21  78 E5        30.41F WCI  22
POCATELLO      CLOUDY    33  23  66 E7        30.42F WCI  27
REXBURG        CLOUDY    31  22  69 CALM      30.40F
$$

IDZ006-010-011-018-031-032-112100-
CENTRAL IDAHO MOUNTAINS


CITY           SKY/WX    TMP DP  RH WIND       PRES   REMARKS
MCCALL         CLOUDY    36  29  75 CALM      30.31F
HAILEY         MOSUNNY   37  27  65 CALM      30.37F
STANLEY          N/A     33  19  56 CALM      30.37F
SALMON         CLOUDY    25  18  74 CALM      30.41F
CHALLIS        CLOUDY    26  19  74 E3        30.37F
$$

IDZ002-004-006-007-026-112100-
NORTHERN IDAHO


CITY           SKY/WX    TMP DP  RH WIND       PRES   REMARKS
LEWISTON       CLOUDY    49  37  63 E10       30.27F
LOWELL           N/A     45  37  73 N3        30.35F
COEUR D`ALENE  CLOUDY    39  37  93 NE15      30.29F WCI  31
MULLAN PASS    CLOUDY    34  31  88 S6        30.27F WCI  29
$$



USA.gov is the U.S. government's official web portal to all federal, state and local government web resources and services.